Regional Weather Roundup
Issued by NWS

Home | Current Version | Previous Version | Text Only | Print | Product List | Glossary On
Versions: 1 2 3 4 5 6 7 8 9 10 11 12 13 14 15 16 17 18 19 20 21 22 23 24 25 26 27 28 29 30 31 32 33 34 35 36 37 38 39 40 41 42 43 44 45 46 47 48 49 50
000
ASUS45 KSLC 031510
RWRUT

UTAH REGIONAL WEATHER ROUNDUP
NATIONAL WEATHER SERVICE SALT LAKE CITY UT
900 AM MDT WED JUN 03 2015

UTZ001>011-023>025-031600-

NORTHERN UTAH

CITY           SKY/WX    TMP DP  RH WIND       PRES   REMARKS
BRIGHAM CITY   PTSUNNY   64  49  57 CALM      29.92F
HILL AFB       PTSUNNY   60  41  50 E21       29.93S
LOGAN          SUNNY     58  49  72 CALM      29.96F
OGDEN          MOSUNNY   64  44  48 NW8       29.91S
PROVO AIRPORT  SUNNY     64  41  42 E6        29.94S
SALT LAKE CITY PTSUNNY   66  50  56 CALM      29.91S
VERNAL         SUNNY     71  40  32 NE6       29.97F
WENDOVER       PTSUNNY   68  39  34 N8        29.94S
HEBER CITY     MOSUNNY   55  39  54 CALM      30.01S
WEST JORDAN    SUNNY     64  45  48 CALM      29.94S

$$

UTZ012>022-026-027-031600-

SOUTHERN/CENTRAL UTAH

CITY           SKY/WX    TMP DP  RH WIND       PRES   REMARKS
BLANDING       SUNNY     66  22  18 S13       30.14R
BRYCE CANYON   SUNNY     57  27  31 CALM      30.11F
CEDAR CITY     SUNNY     63  27  25 CALM      29.98F
DELTA          MOSUNNY   65  22  18 S8        29.93S
HANKSVILLE     SUNNY     70  23  17 SE5       29.94S
MILFORD        SUNNY     65  28  24 VRB5      29.94F
MOAB/CYNLANDS  SUNNY     74  26  16 SE8       29.91S
PRICE          SUNNY     67  28  23 SE5       29.98R
ST GEORGE      MOSUNNY   70  21  16 SW3       29.88S

$$

REGIONAL REPORTS     COLORADO/ARIZONA

CITY           SKY/WX    TMP DP  RH WIND       PRES   REMARKS
CRAIG, CO      SUNNY     59  38  45 E5        30.04F
GRAND JUNCTION SUNNY     67  33  28 S3        29.95S
RIFLE          SUNNY     61  36  39 CALM      30.01F
MONTROSE       SUNNY     71  30  21 E14       30.03F
CORTEZ         SUNNY     66  33  29 CALM      30.09S
PAGE, AZ       SUNNY     73  17  12 SW5       29.96R
GRAND CANYON   SUNNY     63  21  20 S9        30.10S
KINGMAN        SUNNY     72  21  14 SW6       29.89S
FLAGSTAFF      SUNNY     60  18  19 SW12      30.13S

$$

REGIONAL REPORTS    NEVADA/IDAHO/WYOMING

CITY           SKY/WX    TMP DP  RH WIND       PRES   REMARKS
LAS VEGAS, NV  SUNNY     78  39  24 S14       29.76R
ELY            MOSUNNY   56  39  53 VRB3      30.01F
ELKO           MOSUNNY   51  37  58 CALM      29.98F
POCATELLO, ID  SUNNY     56  49  77 SW10      30.01S
BURLEY         PTSUNNY   54  44  69 VRB6      30.00R
EVANSTON, WY   MOSUNNY   54  42  64 N10       30.07S
ROCK SPRINGS   SUNNY     60  38  43 E8        30.08F
KEMMERER       SUNNY     57  41  54 N7        30.10S

$$


USA.gov is the U.S. government's official web portal to all federal, state and local government web resources and services.